Regional Weather Roundup
Issued by NWS Upton, NY

Current Version | Previous Version | Text Only | Print | Product List | Glossary On
Versions: 1 2 3 4 5 6 7 8 9 10 11 12 13 14 15 16 17 18 19 20 21 22 23 24 25 26 27 28 29 30 31 32 33 34 35 36 37 38 39 40 41 42 43 44 45 46 47 48
000
ASUS41 KOKX 271807
RWROKX

REGIONAL WEATHER ROUNDUP
NATIONAL WEATHER SERVICE NEW YORK NY
200 PM EDT MON APR 27 2015

NOTE: "FAIR" INDICATES FEW OR NO CLOUDS BELOW 12,000 FEET WITH NO
SIGNIFICANT WEATHER AND/OR OBSTRUCTIONS TO VISIBILITY.

NYZ071-072-176-178-NJZ106-104-271900-
NEW YORK CITY METRO AREA


CITY           SKY/WX    TMP DP  RH WIND       PRES   REMARKS
CENTRAL PARK   CLOUDY    59  28  30 VRB3      29.68F
LAGUARDIA APRT CLOUDY    57  31  37 NW10      29.66S
KENNEDY INTL   PTSUNNY   60  29  30 NW13G23   29.66F
NEWARK/LIBERTY PTSUNNY   61  29  29 NW13G22   29.67S
BRNX BOT. GARD   N/A     59  32  36 NW7       29.66F
TETERBORO      CLOUDY    59  32  36 NW15G21   29.65S
$$

NYZ177-179-078>081-271900-
LONG ISLAND NEW YORK

CITY           SKY/WX    TMP DP  RH WIND       PRES   REMARKS
FARMINGDALE    CLOUDY    60  32  34 NW14G22   29.65S
ISLIP          PTSUNNY   58  32  37 NW14G22   29.62S
SHIRLEY        CLOUDY    59  32  36 NW18      29.63F
WESTHAMPTON    CLOUDY    59  33  37 NW18G25   29.62F
MONTAUK POINT    N/A     57  35  43 W9        29.60F
$$

NYZ052-065-067-271900-
HUDSON VALLEY

CITY           SKY/WX    TMP DP  RH WIND       PRES   REMARKS
WHITE PLAINS   CLOUDY    57  31  37 NW15      29.64S
NEWBURGH       PTSUNNY   55  34  44 N14G20    29.67
MONTGOMERY     CLOUDY    57  32  38 NW15      29.67S
POUGHKEEPSIE   PTSUNNY   59  33  37 NW15      29.65S
ALBANY         CLOUDY    54  41  61 NE7       29.67S
$$

NJZ001-105-106-008-010-013-015-019>022-104-271900-
NEW JERSEY

CITY           SKY/WX    TMP DP  RH WIND       PRES   REMARKS
NEWARK/LIBERTY PTSUNNY   61  29  29 NW13G22   29.67S
TETERBORO      CLOUDY    59  32  36 NW15G21   29.65S
CALDWELL       CLOUDY    58  28  32 N10G20    29.68R
MORRISTOWN     PTSUNNY   61  28  29 N12G22    29.68S
SOMERVILLE     CLOUDY    58  30  34 NW12G21   29.68S
SUSSEX         CLOUDY    56  31  38 NW9       29.70S
ANDOVER          N/A     52  31  44 VRB7G21   29.71R
TRENTON        CLOUDY    56  30  37 NW14G21   29.70S
MILLVILLE      CLOUDY    58  33  39 W14       29.73S
ATLANTIC CITY  CLOUDY    58  29  33 W16G23    29.71R
WRIGHTSTOWN    CLOUDY    58  28  32 NW9G18    29.68R
TOMS RIVER     CLOUDY    57  28  33 NW12      29.70R
BELMAR         CLOUDY    57  30  35 NW16G22   29.68S
$$

PAZ047>061-062-071-271900-
EASTERN PENNSYLVANIA

CITY           SKY/WX    TMP DP  RH WIND       PRES   REMARKS
PHILADELPHIA   CLOUDY    58  31  35 NW13      29.73S
ALLENTOWN      CLOUDY    56  34  43 NW15G21   29.73S
SCRANTON       LGT RAIN  50  35  56 NW12G18   29.75R
$$

CTZ002-004>006-009-010-012-RIZ004-006-007-MAZ004-011-015-271900-
SOUTHERN NEW ENGLAND
 IN CT

CITY           SKY/WX    TMP DP  RH WIND       PRES   REMARKS
BRADLEY INTL   CLOUDY    59  32  36 N15G26    29.59F
HARTFORD       CLOUDY    58  32  37 NW12G20   29.59F
DANBURY        CLOUDY    57  31  37 NW13G21   29.64F
WTRBRY/OXFORD  PTSUNNY   55  32  41 N14G28    29.63F
BRIDGEPORT     CLOUDY    60  32  34 NW18G24   29.62S
MERIDEN        CLOUDY    59  31  34 N10G25    29.60F
NEW HAVEN      PTSUNNY   58  33  39 NW12      29.61F
CHESTER        MOCLDY    57  32  38 N13       29.60F
GROTON         CLOUDY    59  32  36 NW13      29.57F
WILLIMANTIC    CLOUDY    57  33  40 N16G22    29.59S

 IN RI

CITY           SKY/WX    TMP DP  RH WIND       PRES   REMARKS
PROVIDENCE     LGT RAIN  57  33  40 NW15G24   29.56F
BLOCK ISLAND   CLOUDY    54  36  50 W17G23    29.58F
WESTERLY       PTSUNNY   60  32  34 NW14G22   29.57F

 IN MA

CITY           SKY/WX    TMP DP  RH WIND       PRES   REMARKS
BOSTON         CLOUDY    57  34  41 NW15G22   29.54F
WORCESTER      CLOUDY    53  32  44 NW20G28   29.57S
WESTFIELD      CLOUDY    58  33  39 N23       29.60F
PROVINCETOWN   CLOUDY   N/A N/A N/A N5        29.54F
NANTUCKET      PTSUNNY   53  36  52 W15       29.54F
$$

ANZ330-335-338-340-345-350-353-355-271900-
COASTAL MARINE OBSERVATIONS


STATION/POSITION TIME  SKY/WX   TEMP    WIND        PRES    VSBY  WAVE
                                AIR SEA DIR/SP/G                  HT/PER
                 (UTC)          (F)     (DEG/KT/KT) (MB)    (MI)  (FT/S)
NY HARB ENTRANCE 1750            51 48  270/ 10/ 12 1004.1          1/ 9
4S FIRE IS       1703               46                N/A           2/ 9
20S FIRE ISLAND  1750            47 44  250/ 10/ 10 1004.3          2/10
23SW MTP         1750            46 44  250/ 12/ 14 1002.5          2/10
HUDSON CANYON    NOT AVBL
EXECUTION ROCKS  NOT AVBL
WESTERN LI SOUND NOT AVBL
CENTRAL LI SOUND NOT AVBL
EASTERN LI SOUND 1700            47     240/ 14/ 17   N/A
ROBBINS REEF     1700            56     330/ 15/ 19 1003.1
$$


>>>>>>>>>>>>>>>>>>>>>>>>>>>> KEY <<<<<<<<<<<<<<<<<<<<<<<<<<<
>                                                          <
>     SKY/WX - SKY CONDITION/PRESENT WEATHER               <
>     TMP    - TEMPERATURE IN FAHRENHEIT                   <
>     DP     - DEWPOINT IN FAHRENHEIT                      <
>     RH     - RELATIVE HUMIDITY IN PERCENT                <
>     WIND   - DIRECTION AND SPEED IN MPH                  <
>     PRES   - MEAN SEA LEVEL PRESSURE IN INCHES OF HG     <
>     WCI    - WIND CHILL INDEX                            <
>     VSB    - VISIBILITY IN MILES                         <
>     HX     - HEAT INDEX                                  <
>     TC     - TEMPERATURE IN CELSIUS                      <
>     VRB    - VARIABLE WIND DIRECTION                     <
>                                                          <
>>>>>>>>>>>>>>>>>>>>>>>>>>>> KEY <<<<<<<<<<<<<<<<<<<<<<<<<<<




USA.gov is the U.S. government's official web portal to all federal, state and local government web resources and services.